Youngstown, OH

11:07 PM EST on November 22, 2017 (GMT -0500)
Youngstown-Warren Regional

Weather History for KYNG - November, 2012

Change the Weather History Date:

Friday, November 23, 2012

  Actual Average Record
Temperature  
Mean Temperature 43 °F 39 °F  
Max Temperature 56 °F 46 °F 74 °F (1931)
Min Temperature 30 °F 32 °F 4 °F (1971)
Degree Days  
Heating Degree Days 22 26  
Month to date heating degree days 565 512  
Since 1 July heating degree days 1161 1133  
Cooling Degree Days 0 0  
Month to date cooling degree days 0 0  
Year to date cooling degree days 761 544  
Moisture  
Dew Point 31 °F    
Average Humidity 54    
Maximum Humidity 77    
Minimum Humidity 30    
Precipitation  
Precipitation 0.01 in 0.11 in 1.24 in (1961)
Month to date precipitation 0.57 2.43  
Year to date precipitation 39.65 35.17  
Snow  
Snow T in 0.20 in - ()
Month to date snowfall T 2.1  
Since 1 July snowfall T 2.9  
Since 1 September snowfall T 2.9  
Snow Depth 0.00 in    
Sea Level Pressure  
Sea Level Pressure 29.87 in    
Wind  
Wind Speed 16 mph (SW)    
Max Wind Speed 29 mph    
Max Gust Speed 38 mph    
Visibility 10 miles    
Events Rain , Snow    
T = Trace of Precipitation, MM = Missing Value Source: NWS Daily Summary

Daily Weather History Graph

Daily Weather History Graph

Search for Another Location

Airport or City:

Trip Planner

Search our weather history database for the weather conditions in past years. The results will help you decide how hot, cold, wet, or windy it might be!

Date:

Astronomy

Nov. 23, 2012 Rise Set
Actual Time 7:20 AM EST 4:57 PM EST
Civil Twilight 6:50 AM EST 5:27 PM EST
Nautical Twilight 6:16 AM EST 6:01 PM EST
Astronomical Twilight 5:43 AM EST 6:34 PM EST
Moon 2:13 PM EST 2:35 AM EST
Length of Visible Light 10h 37m
Length of Day
9h 36m
Waxing Gibbous, 79% of the Moon is Illuminated
Nov 23
Waxing Gibbous
Nov 28
Full
Dec 6
Last Quarter
Dec 13
New
Dec 20
First Quarter

Hourly Weather History & Observations

Time (EST) Temp. Windchill Dew Point Humidity Pressure Visibility Wind Dir Wind Speed Gust Speed Precip Events Conditions
12:51 AM 48.9 °F - 32.0 °F 52% 29.97 in 10.0 mi South 9.2 mph - N/A   Mostly Cloudy
1:51 AM 48.0 °F - 32.0 °F 54% 29.94 in 10.0 mi South 8.1 mph - N/A   Mostly Cloudy
2:51 AM 48.0 °F - 32.0 °F 54% 29.92 in 10.0 mi South 9.2 mph - N/A   Partly Cloudy
3:51 AM 48.0 °F - 33.1 °F 56% 29.89 in 10.0 mi South 10.4 mph - N/A   Mostly Cloudy
4:51 AM 48.0 °F - 33.1 °F 56% 29.86 in 10.0 mi South 9.2 mph - N/A   Mostly Cloudy
5:51 AM 50.0 °F - 35.1 °F 57% 29.84 in 10.0 mi SSW 10.4 mph - N/A   Mostly Cloudy
6:25 AM 48.2 °F - 39.2 °F 71% 29.83 in 8.0 mi SSW 9.2 mph 18.4 mph 0.00 in Rain Light Rain
6:51 AM 50.0 °F - 37.9 °F 63% 29.84 in 10.0 mi SSW 9.2 mph - 0.00 in Rain Light Rain
7:51 AM 50.0 °F - 39.9 °F 68% 29.83 in 10.0 mi SSW 10.4 mph 18.4 mph 0.00 in Rain Light Rain
8:51 AM 50.0 °F - 42.1 °F 74% 29.82 in 10.0 mi SW 16.1 mph - 0.01 in Rain Light Rain
9:51 AM 50.0 °F - 44.1 °F 80% 29.81 in 10.0 mi SSW 13.8 mph 21.9 mph 0.00 in   Overcast
10:51 AM 51.1 °F - 44.1 °F 77% 29.81 in 10.0 mi WSW 13.8 mph 24.2 mph N/A   Overcast
11:33 AM 51.8 °F - 42.8 °F 71% 29.79 in 10.0 mi WSW 12.7 mph 21.9 mph N/A   Mostly Cloudy
11:51 AM 52.0 °F - 42.1 °F 69% 29.79 in 10.0 mi SW 15.0 mph 21.9 mph N/A   Mostly Cloudy
12:51 PM 55.0 °F - 25.0 °F 31% 29.77 in 10.0 mi SW 20.7 mph 26.5 mph N/A   Scattered Clouds
1:51 PM 52.0 °F - 23.0 °F 32% 29.77 in 10.0 mi West 23.0 mph 33.4 mph N/A   Scattered Clouds
2:51 PM 46.9 °F - 28.0 °F 48% 29.79 in 10.0 mi West 23.0 mph 31.1 mph N/A   Scattered Clouds
3:51 PM 41.0 °F 31.6 °F 26.6 °F 57% 29.82 in 10.0 mi West 20.7 mph 31.1 mph N/A   Overcast
4:51 PM 37.0 °F 26.4 °F 24.1 °F 59% 29.88 in 10.0 mi West 20.7 mph 33.4 mph N/A   Overcast
5:19 PM 35.6 °F 24.2 °F 24.8 °F 65% 29.88 in 10.0 mi West 21.9 mph 32.2 mph N/A   Overcast
5:51 PM 35.1 °F 23.5 °F 26.1 °F 70% 29.92 in 9.0 mi West 21.9 mph 29.9 mph 0.00 in Rain , Snow Light Rain
6:51 PM 33.1 °F 21.5 °F 25.0 °F 72% 29.94 in 8.0 mi West 19.6 mph 26.5 mph 0.00 in Snow Light Snow
7:51 PM 32.0 °F 19.5 °F 21.9 °F 66% 29.96 in 9.0 mi West 21.9 mph 29.9 mph 0.00 in Snow Light Snow
8:51 PM 32.0 °F 19.2 °F 21.0 °F 64% 29.96 in 9.0 mi West 23.0 mph 29.9 mph 0.00 in Snow Light Snow
9:51 PM 30.9 °F 19.1 °F 21.0 °F 67% 29.97 in 9.0 mi WSW 18.4 mph 27.6 mph 0.00 in Snow Light Snow
10:51 PM 30.9 °F 20.7 °F 21.0 °F 67% 29.97 in 9.0 mi West 13.8 mph 28.8 mph 0.00 in Snow Light Snow
11:51 PM 30.0 °F 19.5 °F 21.9 °F 72% 29.97 in 9.0 mi West 13.8 mph - 0.00 in Snow Light Snow